Weather History for Cavalier, ND

Change the Weather History Date:

Saturday, February 2, 2013

  Actual Average (KGAF) Record (KGAF)
Temperature  
Mean Temperature -7 °F -  
Max Temperature 6 °F 13 °F 52 °F (1991)
Min Temperature -20 °F -4 °F -30 °F (1949)
Degree Days  
Heating Degree Days 72    
Moisture  
Dew Point -11 °F    
Average Humidity 74    
Maximum Humidity 85    
Minimum Humidity 63    
Precipitation  
Precipitation 0.00 in - - ()
Sea Level Pressure  
Sea Level Pressure 30.07 in    
Wind  
Wind Speed 6 mph (SSW)    
Max Wind Speed 15 mph    
Max Gust Speed 21 mph    
Visibility 9 miles    
Events Rain , Snow    
Averages and records for this station are not official NWS values.
T = Trace of Precipitation, MM = Missing Value Source: NWS Daily Summary

Daily Weather History Graph

Daily Weather History Graph

Search for Another Location

Airport:

Trip Planner

Search our weather history database for the weather conditions in past years. The results will help you decide how hot, cold, wet, or windy it might be!

Date:

Astronomy

Feb. 02, 2013 Rise Set
Actual Time 7:58 AM CST 5:30 PM CST
Civil Twilight 7:24 AM CST 6:04 PM CST
Nautical Twilight 6:47 AM CST 6:42 PM CST
Astronomical Twilight 6:10 AM CST 7:18 PM CST
Moon 12:15 AM CST 10:30 AM CST
Length of Visible Light 10h 39m
Length of Day
9h 32m
Waning Gibbous, 59% of the Moon is Illuminated
Feb 2
Waning Gibbous
Feb 3
Last Quarter
Feb 10
New
Feb 17
First Quarter
Feb 25
Full

Hourly Weather History & Observations

Time (CST) Temp. Windchill Dew Point Humidity Pressure Visibility Wind Dir Wind Speed Gust Speed Precip Events Conditions
12:15 AM -11.2 °F -26.4 °F -18.4 °F 70% 30.18 in 10.0 mi NNW 6.9 mph - N/A Rain Light Freezing Rain
12:35 AM -11.2 °F -26.4 °F -18.4 °F 70% 30.18 in 10.0 mi NNW 6.9 mph - N/A Rain Light Freezing Rain
12:55 AM -11.2 °F -26.4 °F -18.4 °F 70% 30.17 in 10.0 mi NNW 6.9 mph - N/A Rain Light Freezing Rain
1:15 AM -11.2 °F -23.0 °F -18.4 °F 70% 30.17 in 10.0 mi NNW 4.6 mph - N/A Rain Light Freezing Rain
1:35 AM -11.2 °F -24.8 °F -18.4 °F 70% 30.18 in 10.0 mi NNW 5.8 mph - N/A Rain Light Freezing Rain
1:55 AM -13.0 °F -22.7 °F -20.2 °F 70% 30.19 in 10.0 mi NW 3.5 mph - N/A Rain Light Freezing Rain
2:15 AM -13.0 °F -27.0 °F -20.2 °F 70% 30.19 in 10.0 mi NNW 5.8 mph - N/A Rain Light Freezing Rain
2:35 AM -13.0 °F -25.1 °F -20.2 °F 70% 30.19 in 10.0 mi NNW 4.6 mph - N/A Rain Light Freezing Rain
2:55 AM -13.0 °F - -20.2 °F 70% 30.19 in 10.0 mi Calm Calm - N/A Rain Light Freezing Rain
3:15 AM -14.8 °F - -22.0 °F 70% 30.19 in 10.0 mi Calm Calm - N/A Rain Light Freezing Rain
3:35 AM -16.6 °F -29.3 °F -22.0 °F 76% 30.19 in 10.0 mi WNW 4.6 mph - N/A Rain Light Freezing Rain
3:55 AM -18.4 °F -28.9 °F -25.6 °F 70% 30.19 in 10.0 mi WSW 3.5 mph - N/A Rain Light Freezing Rain
4:15 AM -20.2 °F -30.9 °F -27.4 °F 69% 30.19 in 10.0 mi West 3.5 mph - N/A Rain Light Freezing Rain
4:35 AM -20.2 °F - -27.4 °F 69% 30.18 in 10.0 mi Calm Calm - N/A   Clear
4:55 AM -18.4 °F - -27.4 °F 63% 30.17 in 10.0 mi Calm Calm - N/A   Clear
5:15 AM -18.4 °F - -25.6 °F 70% 30.16 in 10.0 mi Calm Calm - N/A Rain Light Freezing Rain
6:15 AM -18.4 °F -31.4 °F -25.6 °F 70% 30.15 in 10.0 mi South 4.6 mph - N/A Rain Light Freezing Rain
6:35 AM -18.4 °F -31.4 °F -25.6 °F 70% 30.15 in 10.0 mi South 4.6 mph - N/A Rain Light Freezing Rain
6:55 AM -16.6 °F -29.3 °F -23.8 °F 70% 30.14 in 10.0 mi South 4.6 mph - N/A Rain Light Freezing Rain
7:15 AM -13.0 °F -25.1 °F -20.2 °F 70% 30.14 in 10.0 mi South 4.6 mph - N/A Rain Light Freezing Rain
7:35 AM -13.0 °F -28.6 °F -20.2 °F 70% 30.12 in 10.0 mi South 6.9 mph - N/A Rain Light Freezing Rain
7:55 AM -11.2 °F -27.8 °F -16.6 °F 77% 30.11 in 10.0 mi South 8.1 mph - N/A Rain Light Freezing Rain
8:15 AM -9.4 °F -27.9 °F -14.8 °F 77% 30.10 in 10.0 mi South 10.4 mph - N/A Rain Light Freezing Rain
8:35 AM -9.4 °F -25.6 °F -14.8 °F 77% 30.11 in 10.0 mi South 8.1 mph - N/A Rain Light Freezing Rain
8:55 AM -7.6 °F -22.1 °F -13.0 °F 77% 30.09 in 10.0 mi South 6.9 mph - N/A Rain Light Freezing Rain
9:15 AM -7.6 °F -24.6 °F -13.0 °F 77% 30.07 in 10.0 mi South 9.2 mph - N/A Rain Light Freezing Rain
9:35 AM -5.8 °F -24.4 °F -11.2 °F 77% 30.06 in 10.0 mi South 11.5 mph - N/A Rain Light Freezing Rain
9:55 AM -5.8 °F -25.2 °F -11.2 °F 77% 30.04 in 10.0 mi South 12.7 mph - N/A Rain Light Freezing Rain
10:15 AM -4.0 °F -23.7 °F -9.4 °F 78% 30.04 in 10.0 mi South 13.8 mph - N/A Rain Light Freezing Rain
10:35 AM -2.2 °F -20.7 °F -9.4 °F 71% 30.04 in 9.0 mi South 12.7 mph - N/A Rain Light Freezing Rain
10:55 AM -2.2 °F -22.2 °F -7.6 °F 78% 30.02 in 10.0 mi South 15.0 mph - N/A Rain Light Freezing Rain
11:15 AM -2.2 °F -21.5 °F -7.6 °F 78% 30.02 in 10.0 mi South 13.8 mph - N/A Rain Light Freezing Rain
11:35 AM -0.4 °F -17.6 °F -7.6 °F 72% 30.01 in 10.0 mi South 11.5 mph - N/A Rain Light Freezing Rain
11:55 AM -0.4 °F -15.7 °F -7.6 °F 72% 30.02 in 5.0 mi South 9.2 mph - N/A Rain Light Freezing Rain
12:15 PM -0.4 °F -16.7 °F -5.8 °F 78% 30.00 in 1.0 mi South 10.4 mph - N/A Rain Light Freezing Rain
12:35 PM -0.4 °F -16.7 °F -4.0 °F 85% 29.99 in 1.5 mi South 10.4 mph - N/A Rain Light Freezing Rain
12:55 PM 1.4 °F -12.5 °F -4.0 °F 78% 29.99 in 7.0 mi South 8.1 mph - N/A Rain Light Freezing Rain
1:15 PM 1.4 °F -12.5 °F -2.2 °F 85% 29.99 in 3.0 mi SSE 8.1 mph - N/A Snow Light Snow
1:35 PM 3.2 °F -12.2 °F -2.2 °F 78% 29.97 in 3.0 mi SSE 10.4 mph - N/A Snow Light Snow
1:55 PM 5.0 °F -8.1 °F -2.2 °F 72% 29.97 in 3.0 mi SSE 8.1 mph - N/A Snow Light Snow
2:15 PM 5.0 °F -8.1 °F -0.4 °F 78% 29.96 in 8.0 mi SSE 8.1 mph - N/A   Mostly Cloudy
2:35 PM 5.0 °F -5.6 °F -0.4 °F 78% 29.97 in 8.0 mi SSE 5.8 mph - N/A   Overcast
2:55 PM 5.0 °F -8.1 °F -0.4 °F 78% 29.96 in 4.0 mi SSE 8.1 mph - N/A Snow Light Snow
3:15 PM 5.0 °F -6.9 °F -0.4 °F 78% 29.96 in 6.0 mi South 6.9 mph - N/A   Haze
3:35 PM 5.0 °F -8.1 °F -0.4 °F 78% 29.97 in 10.0 mi South 8.1 mph - N/A   Mostly Cloudy
3:55 PM 5.0 °F -6.9 °F -0.4 °F 78% 29.98 in 10.0 mi South 6.9 mph - N/A   Mostly Cloudy
4:15 PM 5.0 °F -4.1 °F -0.4 °F 78% 29.99 in 10.0 mi South 4.6 mph - N/A   Overcast
4:35 PM 5.0 °F -5.6 °F -0.4 °F 78% 30.00 in 8.0 mi South 5.8 mph - N/A Snow Light Snow
4:55 PM 5.0 °F -2.1 °F -0.4 °F 78% 30.01 in 5.0 mi SW 3.5 mph - N/A Snow Light Snow
5:15 PM 5.0 °F -2.1 °F -0.4 °F 78% 30.02 in 7.0 mi WSW 3.5 mph - N/A   Mostly Cloudy
5:35 PM 5.0 °F - -0.4 °F 78% 30.02 in 8.0 mi Calm Calm - N/A   Overcast
5:55 PM 5.0 °F - -0.4 °F 78% 30.01 in 8.0 mi Calm Calm - N/A Snow Light Snow
6:15 PM 5.0 °F -4.1 °F -0.4 °F 78% 30.02 in 10.0 mi West 4.6 mph - N/A   Overcast
6:35 PM 5.0 °F -4.1 °F -0.4 °F 78% 30.03 in 10.0 mi West 4.6 mph - N/A   Overcast
6:55 PM 5.0 °F -8.1 °F -0.4 °F 78% 30.04 in 10.0 mi NW 8.1 mph - N/A   Overcast
7:15 PM 6.8 °F -7.8 °F -0.4 °F 72% 30.04 in 10.0 mi NNW 10.4 mph - N/A Snow Light Snow
7:35 PM 6.8 °F -10.7 °F -0.4 °F 72% 30.04 in 10.0 mi NNW 15.0 mph 20.7 mph N/A Snow Light Snow